Regional Weather Roundup
Issued by NWS

Home | Current Version | Previous Version | Graphics & Text | Print | Product List | Glossary On
Versions: 1 2 3 4 5 6 7 8 9 10 11 12 13 14 15 16 17 18 19 20 21 22 23 24 25 26 27
000
ASUS45 KBOU 151706
RWRCO

WEATHER ROUNDUP FOR COLORADO
NATIONAL WEATHER SERVICE DENVER/BOULDER CO
1100 AM MDT TUE APR 15 2014

NOTE: "FAIR" INDICATES FEW OR NO CLOUDS BELOW 12000 FEET WITH NO
SIGNIFICANT WEATHER AND/OR OBSTRUCTIONS TO VISIBILITY.

COZ001>005-013-030-031-151800-
...NORTHWEST COLORADO...

CITY           SKY/WX    TMP DP  RH WIND       PRES   REMARKS
CRAIG          PTSUNNY   43  21  41 E9        30.08F
HAYDEN         PTSUNNY   39  19  45 E6        30.10F
MEEKER         MOSUNNY   43  22  43 CALM      30.09F
MOUNT WERNER   PTSUNNY   30   5  34 W10       30.11S WCI  21
STEAMBOAT SPGS PTSUNNY   35  16  46 CALM      30.09F
WALDEN         PTSUNNY   34  18  51 S10G21    30.04S WCI  26
$$

COZ006>008-011-151800-
...WEST CENTRAL VALLEYS...

CITY           SKY/WX    TMP DP  RH WIND       PRES   REMARKS
GRAND JUNCTION SUNNY     46  20  35 SE8       30.13F
MONTROSE       SUNNY     45  19  35 NW6       30.15F
EAGLE          SUNNY     39  16  38 CALM      30.13F
RIFLE          SUNNY     41  19  41 S3        30.13F
DELTA          SUNNY     45  23  41 E3        30.15F
NUCLA            N/A     45  18  33 CALM      30.17F
$$

COZ017>023-064>068-151800-
...SOUTHWEST COLORADO...

CITY           SKY/WX    TMP DP  RH WIND       PRES   REMARKS
DURANGO        SUNNY     48   9  20 VRB3      30.16F
CORTEZ         SUNNY     51  10  19 VRB3      30.15F
PAGOSA SPRINGS SUNNY     43   2  18 S6        30.17F
TELLURIDE      SUNNY     43   1  17 CALM      30.16F
WOLF CREEK PAS NOT AVBL
$$

COZ009-010-012-014-032>034-037-058>063-151800-
...CENTRAL COLORADO...

CITY           SKY/WX    TMP DP  RH WIND       PRES   REMARKS
ASPEN          SUNNY     42  18  37 VRB3      30.09F
BUENA VISTA    SUNNY     42  12  29 SE7       30.07F
COPPER MTN     SUNNY     32  12  43 W14G23    30.13F WCI  22
BERTHOUD PASS  FAIR      19  10  68 W32G46    30.08R WCI   0
COTTONWOOD PAS SUNNY     39  10  30 E3        30.10F
GUNNISON       SUNNY     34  10  37 CALM      30.20F
KREMMLING      MOSUNNY   30  18  59 S3        30.12F
LEADVILLE      SUNNY     37   7  28 N12G21    30.08F
MONARCH PASS   SUNNY     21   9  58 SW32G43   30.24F HAZE    WCI   2
SALIDA         SUNNY     50   8  18 S18G33    30.13F
SUNLIGHT       SUNNY     32  19  59 CALM      30.16S
WILKERSON PASS MOSUNNY   32  12  43 SW7       30.13F WCI  26
$$

COZ069>075-151800-
...SAN LUIS VALLEY/SANGRE DE CRISTO MOUNTAINS...

CITY           SKY/WX    TMP DP  RH WIND       PRES   REMARKS
ALAMOSA        SUNNY     42  11  28 S6        30.15F
LA VETA PASS   SUNNY     34   9  35 SW16G25   30.12R WCI  23
SAGUACHE       SUNNY     43  10  26 S9        30.15F
$$

COZ035-036-038>040-151800-
...NORTHERN COLORADO FRONT RANGE...

CITY           SKY/WX    TMP DP  RH WIND       PRES   REMARKS
DENVER INTL AP CLOUDY    53  20  27 S13       29.93F
DMNS CITY PARK   N/A     56  15  20 S5G10     29.91F
AURORA         PTSUNNY   54  19  26 SW14      29.94F
FRONT RANGE AP NOT AVBL
ERIE MUNI ARPT CLOUDY    56  18  23 S3        29.90F
BOULDER MUN AP CLOUDY    55  18  22 W8        29.90F
CENTENNIAL     CLOUDY    53  19  26 SW8       29.94F
BROOMFIELD     CLOUDY    52  21  30 SE5       29.93F
FORT COLLINS   PTSUNNY   45  27  49 CALM      29.93F
LONGMONT       PTSUNNY   53  33  48 NE5       29.92F
$$

COZ041-046-047-076>085-087-088-151800-
...PIKES PEAK/PALMER DIVIDE AND SOUTHERN FOOTHILLS...

CITY           SKY/WX    TMP DP  RH WIND       PRES   REMARKS
COLO. SPRINGS  PTSUNNY   50  19  29 S8        30.00F
A. F. ACADEMY  PTSUNNY   51  10  20 S9        29.98F
ELLICOTT       NOT AVBL
FALCON         PTSUNNY   49  10  20 S7        30.01F
FORT CARSON    MOSUNNY   49  24  37 SE5       29.98F
LIMON          PTSUNNY   49  30  48 SE9       29.97F
MONUMENT HILL  PTSUNNY   50  14  23 SW7       29.98F
TRINIDAD       SUNNY     51  25  36 S13       30.03F
$$

COZ042>045-048>051-090-091-151800-
...NORTHEAST COLORADO...

CITY           SKY/WX    TMP DP  RH WIND       PRES   REMARKS
GREELEY ARPT   CLOUDY    43  28  56 CALM      29.93S
AKRON          PTSUNNY   46  29  51 SW13      29.93F
BURLINGTON     SUNNY     56  22  26 SW18      29.98F
WRAY           SUNNY     57  29  34 SW9       29.93F
STERLING       PTSUNNY   54  34  47 S12       29.91S
HOLYOKE          N/A     54  34  47 SW9       29.92F
FORT MORGAN    PTSUNNY   49  28  42 S6        29.92F
$$

COZ086-089-092>099-151800-
...SOUTHEAST COLORADO...

CITY           SKY/WX    TMP DP  RH WIND       PRES   REMARKS
PUEBLO         SUNNY     47  35  63 E7        29.99F
LA JUNTA       SUNNY     52  27  38 SW7       30.01F
LAMAR          SUNNY     53  27  36 W13G20    30.01F
SPRINGFIELD      N/A     53  27  36 SW10      30.04F
$$



USA.gov is the U.S. government's official web portal to all federal, state and local government web resources and services.